Location: Newark
(52.4787°S, 179.0532°W)
Time: 20:53:32
(UTC+00:00)

Transit 2A Rocket - Pass Details

Date: 27 November 2019
Orbit: 594 x 909 km, 66.7° (Epoch: 05 December)

Event Time Altitude Azimuth Distance (km) Brightness Sun altitude
Rises 21:08:57 0° 297° (WNW) 3,411 8.1 46.9°
Reaches altitude 10° 21:11:29 10° 290° (WNW) 2,519 7.5 47.2°
Maximum altitude 21:17:08 45° 218° (SW) 1,213 6.2 47.9°
Drops below altitude 10° 21:23:03 10° 145° (SE) 2,628 7.9 48.7°
Sets 21:25:44 0° 138° (SE) 3,573 8.5 49.0°
